Location: Great Malvern
(52.1167°N, 2.3167°W)
Time: 16:20:23
(UTC+00:00)

CENTAUR R/B - Pass Details

Date: 18 September 2020
Orbit: 755 x 1433 km, 63.4° (Epoch: 02 October)

Event Time Altitude Azimuth Distance (km) Brightness Sun altitude
Rises 19:21:15 0° 310° (NW) 3,995 7.1 -10.7°
Reaches altitude 10° 19:23:52 10° 314° (NW) 3,124 6.2 -11.1°
Maximum altitude 19:31:30 64° 36° (NE) 1,445 3.3 -12.2°
Enters shadow 19:38:32 17° 115° (ESE) 2,996 4.4 -13.2°
